CZ-4B DEB

基本信息
目录编号:
64200
目录名称:
CZ-4B DEB
国际标识:
2025-115B
轨道中心:
EARTH
物体状态:
已陨落(2026-07-24)
发射日期:
2025-05-29 UTC
轨道信息
数据来源: 国际轨道数据
星历时间: 2026-07-24T23:18:04+0800
半长轴: 6564.451km
偏心率: 0.0016738
轨道倾角: 97.449°
近地点辐角: 275.430°
升交点赤经: 292.147°
平近点角: 84.509°
近地点: 175.326km
远地点: 197.302km
周期: 88.218分钟
每日圈数: 16.323195
详细信息
发射场:
JSC
轨道高度:
LEO
数据来源:
AOE Integration Group
参考系:
TEME
时间系统:
UTC
历元类型:
SGP4
2D轨道图
3D轨道图
轨道高度分析图
轨道倾角分析图
轨道综合分析图
查看轨道综合分析图